Weather History for Keene, NH

Change the Weather History Date:

Thursday, August 14, 2014

  Actual Average Record
Temperature  
Mean Temperature 61 °F -  
Max Temperature 71 °F 82 °F 96 °F (1947)
Min Temperature 51 °F 56 °F 36 °F (1961)
Degree Days  
Heating Degree Days 4    
Growing Degree Days 11 (Base 50)    
Moisture  
Dew Point 45 °F    
Average Humidity 57    
Maximum Humidity 77    
Minimum Humidity 35    
Precipitation  
Precipitation 0.00 in - - ()
Sea Level Pressure  
Sea Level Pressure 29.80 in    
Wind  
Wind Speed 4 mph (WSW)    
Max Wind Speed 14 mph    
Max Gust Speed 22 mph    
Visibility 9 miles    
Events      
Averages and records for this station are not official NWS values.
T = Trace of Precipitation, MM = Missing Value Source: NWS Daily Summary

Daily Weather History Graph

Daily Weather History Graph

Search for Another Location

Airport:

Trip Planner

Search our weather history database for the weather conditions in past years. The results will help you decide how hot, cold, wet, or windy it might be!

Date:

Astronomy

Aug. 14, 2014 Rise Set
Actual Time 5:54 AM EDT 7:52 PM EDT
Civil Twilight 5:23 AM EDT 8:23 PM EDT
Nautical Twilight 4:45 AM EDT 9:00 PM EDT
Astronomical Twilight 4:04 AM EDT 9:41 PM EDT
Moon 10:05 PM EDT (8/14) 10:35 AM EDT (8/14)
Length of Visible Light 14h 59m
Length of Day
13h 58m
Waning Gibbous, 79% of the Moon is Illuminated
Aug 14
Waning Gibbous
Aug 17
Last Quarter
Aug 25
New
Sep 2
First Quarter
Sep 8
Full

Hourly Weather History & Observations

Time (EDT) Temp. Dew Point Humidity Pressure Visibility Wind Dir Wind Speed Gust Speed Precip Events Conditions
12:15 AM 57.2 °F 50.0 °F 77% 29.72 in 10.0 mi Calm Calm - N/A   Scattered Clouds
12:35 AM 57.2 °F 50.0 °F 77% 29.73 in 5.0 mi South 3.5 mph - N/A   Partly Cloudy
12:55 AM 57.2 °F 50.0 °F 77% 29.73 in 10.0 mi Calm Calm - N/A   Mostly Cloudy
1:15 AM 57.2 °F 48.2 °F 72% 29.73 in 7.0 mi SSW 3.5 mph - N/A   Overcast
1:35 AM 57.2 °F 48.2 °F 72% 29.73 in 0.8 mi Calm Calm - N/A   Overcast
1:55 AM 57.2 °F 48.2 °F 72% 29.73 in 0.5 mi SSW 3.5 mph - N/A   Overcast
2:15 AM 57.2 °F 48.2 °F 72% 29.73 in 0.5 mi SSW 3.5 mph - N/A   Overcast
2:35 AM 57.2 °F 50.0 °F 77% 29.73 in 0.2 mi Calm Calm - N/A   Overcast
2:55 AM 57.2 °F 48.2 °F 72% 29.73 in 0.2 mi Calm Calm - N/A   Overcast
3:15 AM 57.2 °F 48.2 °F 72% 29.73 in 0.2 mi Calm Calm - N/A   Overcast
3:35 AM 57.2 °F 48.2 °F 72% 29.73 in 0.8 mi Calm Calm - N/A   Overcast
3:55 AM 57.2 °F 48.2 °F 72% 29.72 in 10.0 mi Calm Calm - N/A   Partly Cloudy
4:15 AM 59.0 °F 48.2 °F 67% 29.73 in 10.0 mi SW 3.5 mph - N/A   Scattered Clouds
4:35 AM 55.4 °F 46.4 °F 72% 29.73 in 10.0 mi Calm Calm - N/A   Mostly Cloudy
4:55 AM 55.4 °F 46.4 °F 72% 29.73 in 10.0 mi Calm Calm - N/A   Mostly Cloudy
5:15 AM 57.2 °F 46.4 °F 67% 29.73 in 10.0 mi West 4.6 mph - N/A   Overcast
5:35 AM 60.8 °F 46.4 °F 59% 29.74 in 10.0 mi West 3.5 mph - N/A   Scattered Clouds
5:55 AM 57.2 °F 46.4 °F 67% 29.75 in 10.0 mi Calm Calm - N/A   Scattered Clouds
6:15 AM 57.2 °F 46.4 °F 67% 29.75 in 10.0 mi NW 6.9 mph - N/A   Mostly Cloudy
6:35 AM 57.2 °F 46.4 °F 67% 29.76 in 10.0 mi Calm Calm - N/A   Mostly Cloudy
6:55 AM 57.2 °F 46.4 °F 67% 29.77 in 10.0 mi South 4.6 mph - N/A   Overcast
7:15 AM 57.2 °F 46.4 °F 67% 29.78 in 10.0 mi West 4.6 mph - N/A   Overcast
7:35 AM 57.2 °F 44.6 °F 63% 29.78 in 10.0 mi SW 3.5 mph - N/A   Scattered Clouds
7:55 AM 59.0 °F 48.2 °F 67% 29.79 in 10.0 mi SSW 3.5 mph - N/A   Clear
8:15 AM 60.8 °F 46.4 °F 59% 29.80 in 10.0 mi WSW 5.8 mph - N/A   Clear
8:35 AM 60.8 °F 48.2 °F 63% 29.80 in 9.0 mi SW 5.8 mph - N/A   Clear
8:55 AM 62.6 °F 44.6 °F 52% 29.80 in 10.0 mi WSW 8.1 mph - N/A   Clear
9:15 AM 62.6 °F 44.6 °F 52% 29.80 in 10.0 mi WSW 9.2 mph - N/A   Clear
9:35 AM 62.6 °F 44.6 °F 52% 29.80 in 10.0 mi West 5.8 mph - N/A   Clear
9:55 AM 64.4 °F 44.6 °F 49% 29.81 in 10.0 mi West 9.2 mph - N/A   Clear
10:15 AM 64.4 °F 44.6 °F 49% 29.81 in 10.0 mi WNW 9.2 mph - N/A   Clear
10:35 AM 64.4 °F 44.6 °F 49% 29.81 in 10.0 mi WNW 9.2 mph - N/A   Clear
10:55 AM 64.4 °F 44.6 °F 49% 29.81 in 10.0 mi NW 11.5 mph 16.1 mph N/A   Clear
11:15 AM 66.2 °F 44.6 °F 46% 29.81 in 10.0 mi West 9.2 mph 16.1 mph N/A   Partly Cloudy
11:35 AM 66.2 °F 44.6 °F 46% 29.81 in 10.0 mi NW 9.2 mph - N/A   Scattered Clouds
11:55 AM 66.2 °F 44.6 °F 46% 29.81 in 10.0 mi West 9.2 mph - N/A   Mostly Cloudy
12:15 PM 66.2 °F 44.6 °F 46% 29.81 in 10.0 mi WNW 6.9 mph - N/A   Mostly Cloudy
12:35 PM 66.2 °F 44.6 °F 46% 29.81 in 10.0 mi West 8.1 mph 16.1 mph N/A   Scattered Clouds
12:55 PM 66.2 °F 44.6 °F 46% 29.81 in 10.0 mi WNW 8.1 mph 21.9 mph N/A   Scattered Clouds
1:15 PM 68.0 °F 44.6 °F 43% 29.81 in 10.0 mi WSW 10.4 mph 16.1 mph N/A   Mostly Cloudy
1:35 PM 69.8 °F 44.6 °F 40% 29.81 in 10.0 mi SW 10.4 mph - N/A   Scattered Clouds
1:55 PM 69.8 °F 44.6 °F 40% 29.81 in 10.0 mi West 13.8 mph - N/A   Scattered Clouds
2:15 PM 69.8 °F 44.6 °F 40% 29.81 in 10.0 mi West 9.2 mph - N/A   Mostly Cloudy
2:35 PM 69.8 °F 44.6 °F 40% 29.81 in 10.0 mi West 9.2 mph 16.1 mph N/A   Mostly Cloudy
2:55 PM 71.6 °F 42.8 °F 35% 29.81 in 10.0 mi West 10.4 mph 16.1 mph N/A   Clear
3:15 PM 71.6 °F 42.8 °F 35% 29.81 in 10.0 mi West 11.5 mph 17.3 mph N/A   Scattered Clouds
3:35 PM 69.8 °F 44.6 °F 40% 29.81 in 10.0 mi WNW 12.7 mph 17.3 mph N/A   Mostly Cloudy
3:55 PM 69.8 °F 44.6 °F 40% 29.81 in 10.0 mi SW 8.1 mph - N/A   Overcast
4:15 PM 71.6 °F 42.8 °F 35% 29.82 in 10.0 mi NW 10.4 mph 16.1 mph N/A   Mostly Cloudy
4:35 PM 69.8 °F 42.8 °F 38% 29.82 in 10.0 mi WNW 8.1 mph - N/A   Mostly Cloudy
4:55 PM 71.6 °F 44.6 °F 38% 29.82 in 10.0 mi West 11.5 mph 17.3 mph N/A   Scattered Clouds
5:15 PM 69.8 °F 42.8 °F 38% 29.82 in 10.0 mi WSW 5.8 mph - N/A   Clear
5:35 PM 71.6 °F 42.8 °F 35% 29.82 in 10.0 mi WSW 10.4 mph - N/A   Clear
5:55 PM 69.8 °F 42.8 °F 38% 29.82 in 10.0 mi WSW 9.2 mph - N/A   Clear
6:15 PM 69.8 °F 42.8 °F 38% 29.82 in 10.0 mi West 4.6 mph - N/A   Clear
6:35 PM 69.8 °F 42.8 °F 38% 29.83 in 10.0 mi West 3.5 mph - N/A   Clear
6:55 PM 68.0 °F 42.8 °F 40% 29.84 in 10.0 mi WNW 3.5 mph - N/A   Clear
7:15 PM 66.2 °F 42.8 °F 43% 29.84 in 10.0 mi Calm Calm - N/A   Clear
7:35 PM 64.4 °F 46.4 °F 52% 29.84 in 10.0 mi Calm Calm - N/A   Clear
7:55 PM 60.8 °F 46.4 °F 59% 29.84 in 10.0 mi South 3.5 mph - N/A   Clear
8:15 PM 57.2 °F 44.6 °F 63% 29.85 in 10.0 mi Calm Calm - N/A   Clear
8:35 PM 57.2 °F 44.6 °F 63% 29.85 in 10.0 mi Calm Calm - N/A   Clear
8:55 PM 55.4 °F 44.6 °F 67% 29.86 in 10.0 mi Calm Calm - N/A   Clear
9:15 PM 55.4 °F 44.6 °F 67% 29.87 in 10.0 mi Calm Calm - N/A   Clear
9:35 PM 55.4 °F 44.6 °F 67% 29.87 in 10.0 mi Calm Calm - N/A   Clear
9:55 PM 53.6 °F 44.6 °F 72% 29.88 in 10.0 mi Calm Calm - N/A   Partly Cloudy
10:15 PM 55.4 °F 44.6 °F 67% 29.88 in 10.0 mi Calm Calm - N/A   Mostly Cloudy
10:35 PM 55.4 °F 44.6 °F 67% 29.89 in 10.0 mi Calm Calm - N/A   Mostly Cloudy
10:55 PM 53.6 °F 44.6 °F 72% 29.89 in 10.0 mi Calm Calm - N/A   Partly Cloudy
11:15 PM 53.6 °F 44.6 °F 72% 29.88 in 10.0 mi Calm Calm - N/A   Partly Cloudy
11:35 PM 51.8 °F 44.6 °F 76% 29.88 in 10.0 mi Calm Calm - N/A   Partly Cloudy
11:55 PM 53.6 °F 44.6 °F 72% 29.89 in 10.0 mi South 3.5 mph - N/A   Mostly Cloudy